User: anonymous   Login
Location: Caltech
(34.1382°N, 118.1253°W)
Time: 20:44:32
(UTC-07:00)
Language:

RS-15 - Orbit

View from above orbital plane
View from above orbital plane
View from above satellite
View from above satellite

Ground track
Ground track

The orbit data is extracted from the following two-line orbital elements,

1 23439U 94085A   15246.94284505 -.00000033 +00000-0 +28060-3 0  9998
2 23439 064.8130 194.0988 0156676 358.3264 001.7109 11.27563142852034
Epoch (UTC): 03 September 2015 22:37:41
Eccentricity: 0.0156676
inclination: 64.8130°
perigee height: 1891 km
apogee height: 2154 km
right ascension of ascending node: 194.0988°
argument of perigee: 358.3264°
revolutions per day: 11.27563142
mean anomaly at epoch: 1.7109°
orbit number at epoch: 85203

The dashed part of the orbit path shows where the satellite is in the earth's shadow,  

DLR